FENGYUN 1C DEB, 30316

Orbit data source: Space-Track

FENGYUN 1C DEB, 30316 is space debris in SSO originally from a launch on Mon, 10 May 1999 UTC launched from the Taiyaun Space Center, China (TSC). Fengyun 1C debris stems from the Chinese weather satellite Fengyun-1C, which was intentionally destroyed by a Chinese anti-satellite missile in 2007. This event dramatically increased the amount of space debris, with thousands of trackable fragments posing hazards to satellites and human spaceflight. The Fengyun 1C debris cloud has become a focal point in discussions about space sustainability and the need for international regulations to prevent the creation of new debris.

Loading next visibility...
Identifier
30316, 1999-025AAD
Orbit
SSO
Country
Flag of CNCN / PRC
Related business
Manufacturer
Unknown
Mission
Spacecraft
Bus & Motor
Unknown
Mass
Unknown
Launch date (UTC)
1999-05-10 (27 years ago)
Launch vehicle
Unknown
Launch site
Taiyaun Space Center, China (TSC)
Object type
Payload
Rocket body
Debris
Shape & HBR
Unknown shape, 0.1 m
Radar Cross Section
Small (<0.1 m²)

Expand to show TLE details & history
Last TLE update: 16 hours ago

TLE from 16 hours ago
0 FENGYUN 1C DEB
1 30316U 99025AAD 26262.55506266  .00005526  00000-0  11232-2 0  9990
2 30316  98.6565  21.5653 0033140 253.1179 106.6385 14.61194392 24314
Epoch: 2026-09-19T13:19Z
TLE epoch observation values (Epoch: 2026-09-19T13:19:17.413Z)
Latitude
-0.00009°
Longitude
-176.71916°
Altitude
699.071 km
Speed
7.503 km/s
True Right ascension
01h 26m 15s
True Declination
0° 00' 00"
Sunlit
Object was in full shadow at epoch
Visualization orbit readout
Latitude
Unknown
Longitude
Unknown
Altitude
Unknown
Speed
Unknown
Apparent Right ascension
Unknown
Apparent Declination
Unknown
Sunlit
N/A
Visualization observer readout
Local Sidereal Time
22:23:05
Azimuth
Unknown
Elevation
Unknown
Doppler factor
Unknown
Orbital elements
Apogee altitude
709.833 km
Perigee altitude
663.009 km
Semi-major axis
7,064.558 km
Eccentricity
0.00331
Inclination
98.6565°
RAAN
21.5653°
Arg. of periapsis
253.1179°
True anomaly
107.00192°
Mean anomaly
106.6385°
Eccentric anomaly
106.82025°
Mean motion
3.65524 °/min
Orbital period
98.49 mins
BSTAR
0.0011232
Loading maneuver chart data...
Computing Atmospheric mass density...

Documentation

Showing up to 5 results
|